Back to catalog

FENGYUN 1C DEB

AliveSSO
NORAD 30594·DEBRIS·🇨🇳 China

Launched May 10, 1999 from Taiyuan Satellite Launch Center

Loading…

Next Passes (next 24 hours)

TLE

FreshSource: Space-Track

Epoch: Sep 14, 2026, 14:16 UTC

1 30594U 99025ALZ 26257.59497711  .00000164  00000-0  88082-4 0  9992
2 30594  99.1147 126.6478 0192446 254.3085 103.6785 14.17531180 14210

Track FENGYUN 1C DEB in real time with AllMySat

Download on the App Store